Change the Weather History Date:

Thursday, November 22, 2012

  Actual Average Record
Temperature  
Mean Temperature 66 °F -  
Max Temperature 78 °F 55 °F 78 °F (2012)
Min Temperature 53 °F 35 °F 24 °F (2007)
Cooling Degree Days 2    
Growing Degree Days 16 (Base 50)    
Moisture  
Dew Point 42 °F    
Average Humidity 47    
Maximum Humidity 75    
Minimum Humidity 20    
Precipitation  
Precipitation 0.00 in - - ()
Sea Level Pressure  
Sea Level Pressure 29.98 in    
Wind  
Wind Speed 18 mph (SW)    
Max Wind Speed 32 mph    
Max Gust Speed 40 mph    
Visibility 10 miles    
Events      
Averages and records for this station are not official NWS values.
T = Trace of Precipitation, MM = Missing Value Source: NWS Daily Summary

Daily Weather History Graph

Daily Weather History Graph

Search for Another Location

Airport or City:

Trip Planner

Search our weather history database for the weather conditions in past years. The results will help you decide how hot, cold, wet, or windy it might be!

Date:

Astronomy

Nov. 22, 2012 Rise Set
Actual Time 7:19 AM CST 5:26 PM CST
Civil Twilight 6:51 AM CST 5:54 PM CST
Nautical Twilight 6:20 AM CST 6:25 PM CST
Astronomical Twilight 5:50 AM CST 6:55 PM CST
Moon 2:03 PM CST (11/22) 1:51 AM CST (11/22)
Length of Visible Light 11h 02m
Length of Day
10h 07m
Waxing Gibbous, 71% of the Moon is Illuminated
Nov 22
Waxing Gibbous
Nov 28
Full
Dec 6
Last Quarter
Dec 13
New
Dec 19
First Quarter

Hourly Weather History & Observations

Time (CST) Temp. Dew Point Humidity Pressure Visibility Wind Dir Wind Speed Gust Speed Precip Events Conditions
12:53 AM 62.1 °F 48.0 °F 60% 29.97 in 10.0 mi South 17.3 mph - N/A   Clear
1:53 AM 63.0 °F 48.0 °F 58% 29.95 in 10.0 mi South 18.4 mph - N/A   Clear
2:53 AM 61.0 °F 48.0 °F 62% 29.94 in 10.0 mi South 20.7 mph 31.1 mph N/A   Clear
3:53 AM 59.0 °F 48.0 °F 67% 29.94 in 10.0 mi South 19.6 mph - N/A   Clear
4:53 AM 57.9 °F 48.0 °F 70% 29.92 in 10.0 mi South 18.4 mph - N/A   Clear
5:53 AM 57.9 °F 48.0 °F 70% 29.92 in 10.0 mi South 20.7 mph - N/A   Clear
6:53 AM 55.9 °F 48.0 °F 75% 29.94 in 10.0 mi South 17.3 mph - N/A   Clear
7:53 AM 55.9 °F 48.0 °F 75% 29.94 in 10.0 mi South 17.3 mph - N/A   Clear
8:53 AM 60.1 °F 50.0 °F 69% 29.94 in 10.0 mi South 20.7 mph 28.8 mph N/A   Clear
9:53 AM 64.9 °F 50.0 °F 58% 29.94 in 10.0 mi SSW 23.0 mph 32.2 mph N/A   Clear
10:53 AM 68.0 °F 50.0 °F 52% 29.93 in 10.0 mi SSW 23.0 mph 26.5 mph N/A   Clear
11:53 AM 71.1 °F 50.0 °F 47% 29.91 in 10.0 mi SSW 19.6 mph - N/A   Clear
12:53 PM 75.0 °F 48.9 °F 40% 29.89 in 10.0 mi SSW 19.6 mph 26.5 mph N/A   Clear
1:53 PM 77.0 °F 46.9 °F 34% 29.87 in 10.0 mi SW 12.7 mph 23.0 mph N/A   Clear
2:53 PM 78.1 °F 44.1 °F 30% 29.86 in 10.0 mi SSW 17.3 mph 26.5 mph N/A   Clear
3:53 PM 77.0 °F 41.0 °F 28% 29.90 in 10.0 mi West 15.0 mph - N/A   Clear
4:53 PM 71.1 °F 41.0 °F 34% 29.93 in 10.0 mi WSW 6.9 mph - N/A   Clear
5:08 PM 68.0 °F 39.2 °F 35% 29.98 in 2.5 mi NW 18.4 mph 26.5 mph N/A   Haze
5:15 PM 68.0 °F 28.4 °F 23% 29.99 in 10.0 mi NW 13.8 mph 26.5 mph N/A   Clear
5:27 PM 68.0 °F 24.8 °F 20% 30.00 in 10.0 mi NNW 12.7 mph - N/A   Clear
5:53 PM 63.0 °F 26.1 °F 25% 29.99 in 10.0 mi NNW 10.4 mph - N/A   Clear
6:53 PM 59.0 °F 35.1 °F 41% 30.04 in 10.0 mi NNW 8.1 mph - N/A   Clear
8:53 PM 62.1 °F 33.1 °F 34% 30.15 in 10.0 mi North 32.2 mph 40.3 mph N/A   Clear
9:53 PM 57.9 °F 32.0 °F 37% 30.20 in 10.0 mi North 25.3 mph 33.4 mph N/A   Clear
10:53 PM 55.0 °F 30.0 °F 38% 30.24 in 10.0 mi North 24.2 mph 35.7 mph N/A   Clear
11:53 PM 53.1 °F 34.0 °F 48% 30.27 in 10.0 mi North 18.4 mph 28.8 mph N/A   Clear